Tracking 19193 objects as of 22-Jun-2018
HD Live streaming from Space Station
objects crossing your sky now

H-1 R/B(1)

Track H-1 R/B(1) now!
10-day predictions


NORAD ID: 20230
Int'l Code: 1989-070B
Perigee: 185.2 km
Apogee: 2,880.8 km
Inclination: 28.2 °
Period: 116.6 minutes
Semi major axis: 7904 km
RCS: 2.9914 m2 (large)
Launch date: September 5, 1989
Source: Japan (JPN)
Launch site: TANEGASHIMA SPACE CENTER (TNSTA)

Note: This is a ROCKET BODY
aabbcc
Your satellite tracking list
Your tracking list is empty




NASA's NSSDC Master Catalog

Two Line Element Set (TLE):
1 20230U 89070B   18172.91368730 +.00327682 -31241-5 +71960-3 0  9998
2 20230 028.1774 011.0984 1705181 162.5663 204.1577 12.35465515552547
Source of the keplerian elements: AFSPC